Location: B?ezina
(49.8085°N, 13.6013°E)
Time: 20:54:10
(UTC+00:00)

Alouette 2 Rocket - Pass Details

Date: 19 May 2025
Orbit: 501 x 2618 km, 79.8° (Epoch: 15 June)

Event Time Altitude Azimuth Distance (km) Brightness Sun altitude
Rises 19:50:53 0° 339° (NNW) 2,612 8.2 -8.4°
Reaches altitude 10° 19:52:56 10° 332° (NNW) 1,741 7.3 -8.7°
Maximum altitude 19:56:22 42° 260° (W) 813 4.5 -9.0°
Drops below altitude 10° 20:00:32 10° 190° (S) 2,114 5.9 -9.5°
Enters shadow 20:02:55 - 184° (S) 3,120 6.7 -9.8°
